QPF
0.01 0.01 0.01 0.01 0.01 0.02 0.03 0.02 0.01 0.01 0.01 0.01 0.01 0.01 0.00 0.00 0.00 0.00 0.00 0.00 0.00 0.00 0.00 0.00 0.00 0.00 0.01 0.00 0.01 0.01 0.00 0.00 0.00 0.00 0.00 0.01 0.01 0.01 0.01 0.02 0.02 0.02 0.03 0.03
0.01 0.01 0.01 0.01 0.01 0.01 0.01 0.01 0.01 0.01 0.01 0.01 0.01 0.00 0.00 0.00 0.00 0.00 0.00 0.00 0.00 0.00 0.00 0.00 0.00 0.01 0.01 0.01 0.01 0.01 0.01 0.01 0.01 0.01 0.01 0.01 0.01 0.02 0.02 0.02 0.02 0.02 0.02 0.02
0.02 0.01 0.02 0.03 0.01 0.01 0.02 0.01 0.01 0.02 0.02 0.01 0.01 0.00 0.00 0.00 0.00 0.00 0.00 0.00 0.00 0.00 0.00 0.01 0.01 0.01 0.02 0.01 0.01 0.02 0.02 0.02 0.02 0.02 0.02 0.02 0.02 0.02 0.02 0.02 0.02 0.02 0.02 0.03
0.03 0.03 0.03 0.02 0.01 0.01 0.02 0.01 0.01 0.01 0.01 0.01 0.01 0.01 0.01 0.01 0.01 0.01 0.01 0.00 0.00 0.00 0.01 0.01 0.01 0.02 0.02 0.02 0.02 0.03 0.03 0.03 0.02 0.03 0.03 0.03 0.03 0.03 0.03 0.03 0.02 0.02 0.02 0.02
0.04 0.04 0.02 0.01 0.01 0.02 0.02 0.01 0.01 0.01 0.01 0.01 0.01 0.01 0.01 0.01 0.01 0.01 0.01 0.01 0.01 0.01 0.01 0.02 0.02 0.02 0.03 0.03 0.03 0.04 0.04 0.03 0.03 0.03 0.04 0.04 0.03 0.03 0.03 0.03 0.02 0.02 0.02 0.02
0.04 0.04 0.02 0.01 0.01 0.01 0.02 0.02 0.01 0.01 0.01 0.01 0.01 0.01 0.01 0.01 0.01 0.01 0.01 0.01 0.01 0.01 0.01 0.02 0.02 0.03 0.03 0.04 0.04 0.04 0.04 0.05 0.04 0.04 0.04 0.04 0.04 0.03 0.03 0.03 0.03 0.02 0.02 0.02
0.03 0.03 0.02 0.01 0.01 0.01 0.02 0.03 0.01 0.01 0.01 0.01 0.02 0.02 0.01 0.01 0.01 0.01 0.01 0.01 0.01 0.01 0.01 0.02 0.02 0.03 0.03 0.04 0.04 0.04 0.04 0.05 0.04 0.04 0.04 0.04 0.03 0.03 0.04 0.03 0.03 0.02 0.02 0.01
0.03 0.04 0.02 0.01 0.01 0.01 0.02 0.02 0.02 0.02 0.01 0.01 0.01 0.01 0.01 0.01 0.01 0.01 0.01 0.01 0.01 0.01 0.01 0.01 0.02 0.02 0.03 0.03 0.04 0.03 0.03 0.03 0.03 0.03 0.03 0.03 0.03 0.04 0.03 0.02 0.02 0.02 0.02 0.01
0.03 0.03 0.02 0.01 0.01 0.01 0.01 0.01 0.02 0.01 0.01 0.01 0.01 0.01 0.01 0.01 0.01 0.01 0.01 0.01 0.01 0.01 0.01 0.01 0.01 0.02 0.02 0.03 0.03 0.02 0.02 0.03 0.03 0.03 0.02 0.02 0.02 0.03 0.02 0.02 0.02 0.01 0.01 0.01
0.02 0.02 0.02 0.01 0.01 0.01 0.01 0.01 0.02 0.02 0.01 0.01 0.01 0.01 0.01 0.01 0.01 0.01 0.01 0.01 0.01 0.01 0.01 0.01 0.01 0.01 0.02 0.02 0.02 0.02 0.02 0.03 0.03 0.02 0.02 0.02 0.02 0.02 0.02 0.02 0.01 0.01 0.01 0.01
0.01 0.01 0.01 0.01 0.00 0.01 0.01 0.01 0.01 0.01 0.01 0.01 0.01 0.01 0.01 0.01 0.01 0.01 0.00 0.00 0.00 0.01 0.01 0.00 0.00 0.01 0.01 0.01 0.02 0.02 0.02 0.02 0.02 0.02 0.02 0.02 0.02 0.02 0.02 0.02 0.01 0.01 0.01 0.01
0.01 0.01 0.01 0.01 0.01 0.01 0.01 0.01 0.01 0.01 0.01 0.01 0.01 0.01 0.01 0.01 0.01 0.01 0.01 0.00 0.00 0.01 0.01 0.00 0.00 0.01 0.01 0.01 0.01 0.02 0.02 0.02 0.02 0.02 0.02 0.02 0.02 0.01 0.01 0.01 0.01 0.01 0.01 0.01
0.01 0.01 0.01 0.01 0.01 0.01 0.01 0.01 0.01 0.01 0.01 0.01 0.01 0.01 0.01 0.01 0.01 0.01 0.01 0.01 0.01 0.01 0.01 0.01 0.01 0.01 0.01 0.01 0.01 0.01 0.02 0.01 0.01 0.02 0.02 0.02 0.01 0.01 0.01 0.01 0.01 0.01 0.02 0.02
0.00 0.01 0.01 0.01 0.01 0.01 0.01 0.01 0.01 0.01 0.01 0.01 0.01 0.01 0.01 0.01 0.01 0.01 0.01 0.01 0.01 0.01 0.01 0.01 0.01 0.01 0.01 0.01 0.01 0.01 0.01 0.01 0.01 0.01 0.01 0.02 0.01 0.01 0.01 0.01 0.01 0.01 0.02 0.02
0.00 0.01 0.01 0.01 0.00 0.00 0.01 0.01 0.01 0.01 0.01 0.01 0.01 0.01 0.01 0.01 0.01 0.02 0.01 0.01 0.01 0.01 0.01 0.01 0.01 0.01 0.01 0.01 0.01 0.01 0.01 0.01 0.01 0.01 0.01 0.01 0.01 0.01 0.01 0.01 0.01 0.01 0.01 0.01
0.01 0.01 0.01 0.00 0.00 0.00 0.00 0.01 0.01 0.01 0.01 0.01 0.01 0.01 0.01 0.01 0.02 0.02 0.01 0.01 0.01 0.01 0.01 0.01 0.01 0.01 0.01 0.01 0.01 0.01 0.01 0.01 0.01 0.01 0.01 0.01 0.01 0.01 0.01 0.01 0.01 0.01 0.01 0.02
0.01 0.01 0.00 0.00 0.00 0.00 0.00 0.00 0.00 0.00 0.00 0.00 0.01 0.01 0.01 0.01 0.01 0.01 0.01 0.01 0.02 0.02 0.02 0.02 0.01 0.01 0.01 0.01 0.01 0.01 0.01 0.00 0.01 0.01 0.01 0.01 0.01 0.01 0.01 0.01 0.01 0.01 0.01 0.01
0.00 0.01 0.01 0.01 0.01 0.00 0.00 0.00 0.00 0.00 0.00 0.00 0.01 0.01 0.01 0.01 0.01 0.01 0.01 0.02 0.01 0.01 0.01 0.01 0.01 0.01 0.01 0.01 0.01 0.01 0.00 0.00 0.00 0.01 0.01 0.01 0.01 0.01 0.01 0.01 0.01 0.01 0.01 0.01
0.00 0.00 0.01 0.01 0.01 0.01 0.01 0.00 0.00 0.00 0.00 0.00 0.00 0.01 0.01 0.01 0.01 0.01 0.01 0.01 0.01 0.01 0.01 0.01 0.01 0.01 0.00 0.00 0.01 0.01 0.00 0.00 0.00 0.00 0.01 0.01 0.01 0.00 0.00 0.01 0.01 0.01 0.01 0.01
0.00 0.00 0.01 0.01 0.01 0.01 0.01 0.01 0.00 0.00 0.00 0.00 0.00 0.01 0.01 0.01 0.01 0.01 0.01 0.01 0.01 0.01 0.01 0.01 0.01 0.00 0.00 0.00 0.00 0.00 0.00 0.00 0.00 0.00 0.00 0.01 0.01 0.01 0.01 0.01 0.00 0.01 0.01 0.01
0.00 0.00 0.00 0.01 0.01 0.01 0.00 0.00 0.00 0.00 0.00 0.00 0.00 0.01 0.01 0.01 0.01 0.01 0.01 0.01 0.01 0.01 0.01 0.01 0.00 0.00 0.00 0.00 0.00 0.00 0.00 0.00 0.00 0.01 0.01 0.01 0.01 0.01 0.01 0.01 0.01 0.01 0.01 0.01
0.00 0.00 0.00 0.01 0.00 0.00 0.00 0.00 0.00 0.00 0.00 0.00 0.00 0.01 0.01 0.01 0.01 0.01 0.01 0.01 0.01 0.01 0.00 0.00 0.00 0.01 0.01 0.01 0.01 0.01 0.01 0.01 0.01 0.01 0.01 0.01 0.01 0.01 0.01 0.01 0.01 0.01 0.01 0.01
0.00 0.00 0.00 0.01 0.01 0.00 0.00 0.00 0.00 0.00 0.00 0.00 0.00 0.01 0.01 0.01 0.01 0.01 0.01 0.01 0.01 0.01 0.00 0.00 0.01 0.01 0.01 0.01 0.01 0.01 0.01 0.01 0.01 0.01 0.01 0.00 0.01 0.00 0.01 0.01 0.01 0.01 0.01 0.01
0.00 0.00 0.00 0.00 0.00 0.00 0.00 0.00 0.00 0.00 0.00 0.00 0.00 0.01 0.01 0.01 0.01 0.01 0.01 0.01 0.01 0.01 0.00 0.00 0.00 0.01 0.01 0.01 0.01 0.01 0.01 0.01 0.01 0.01 0.01 0.01 0.01 0.00 0.01 0.01 0.01 0.01 0.01 0.01
0.00 0.00 0.00 0.00 0.00 0.00 0.00 0.00 0.00 0.00 0.00 0.00 0.01 0.01 0.01 0.01 0.01 0.01 0.01 0.01 0.01 0.00 0.00 0.00 0.00 0.00 0.01 0.01 0.01 0.01 0.01 0.01 0.01 0.01 0.01 0.01 0.01 0.01 0.01 0.01 0.01 0.01 0.01 0.01
0.00 0.00 0.00 0.00 0.00 0.00 0.00 0.00 0.00 0.00 0.00 0.00 0.01 0.01 0.01 0.01 0.01 0.01 0.00 0.00 0.00 0.00 0.00 0.00 0.00 0.00 0.01 0.01 0.01 0.01 0.01 0.01 0.01 0.01 0.01 0.01 0.01 0.01 0.01 0.00 0.00 0.00 0.01 0.01
0.00 0.00 0.00 0.01 0.01 0.00 0.00 0.00 0.00 0.00 0.00 0.00 0.01 0.01 0.01 0.01 0.00 0.00 0.00 0.00 0.00 0.00 0.00 0.00 0.00 0.01 0.01 0.01 0.01 0.01 0.01 0.01 0.01 0.01 0.01 0.01 0.00 0.00 0.00 0.00 0.00 0.01 0.01 0.01
MSLP
1023.70 1023.33 1022.88 1022.37 1021.79 1021.14 1020.42 1019.62 1018.76 1017.86 1016.94 1016.04 1015.20 1014.45 1013.81 1013.27 1012.85 1012.53 1012.28 1012.09 1011.93 1011.82 1011.74 1011.71 1011.75 1011.86 1012.06 1012.33 1012.66 1013.04 1013.42 1013.78 1014.10 1014.37 1014.60 1014.78 1014.95 1015.12 1015.32 1015.55 1015.83 1016.15 1016.49 1016.84
1024.76 1024.32 1023.78 1023.15 1022.45 1021.68 1020.86 1020.00 1019.12 1018.23 1017.35 1016.50 1015.70 1014.98 1014.33 1013.76 1013.27 1012.85 1012.49 1012.18 1011.93 1011.74 1011.61 1011.56 1011.59 1011.72 1011.93 1012.21 1012.56 1012.93 1013.29 1013.64 1013.94 1014.20 1014.41 1014.59 1014.77 1014.96 1015.18 1015.45 1015.75 1016.09 1016.45 1016.82
1025.77 1025.28 1024.66 1023.93 1023.13 1022.27 1021.37 1020.46 1019.54 1018.65 1017.78 1016.95 1016.17 1015.44 1014.77 1014.16 1013.61 1013.11 1012.67 1012.29 1011.98 1011.74 1011.59 1011.53 1011.56 1011.69 1011.90 1012.17 1012.49 1012.83 1013.16 1013.46 1013.73 1013.96 1014.16 1014.34 1014.53 1014.75 1015.00 1015.30 1015.64 1016.01 1016.40 1016.79
1026.60 1026.06 1025.38 1024.60 1023.72 1022.79 1021.85 1020.89 1019.96 1019.05 1018.18 1017.35 1016.57 1015.83 1015.13 1014.48 1013.88 1013.33 1012.84 1012.42 1012.09 1011.83 1011.68 1011.61 1011.65 1011.76 1011.95 1012.19 1012.46 1012.74 1013.01 1013.25 1013.47 1013.66 1013.85 1014.04 1014.25 1014.50 1014.79 1015.13 1015.51 1015.92 1016.35 1016.77
1027.14 1026.56 1025.84 1025.01 1024.11 1023.16 1022.19 1021.23 1020.29 1019.39 1018.52 1017.69 1016.89 1016.14 1015.42 1014.74 1014.11 1013.53 1013.03 1012.60 1012.26 1012.01 1011.87 1011.81 1011.83 1011.93 1012.08 1012.26 1012.46 1012.66 1012.85 1013.02 1013.19 1013.35 1013.52 1013.72 1013.96 1014.25 1014.59 1014.98 1015.40 1015.84 1016.30 1016.74
1027.29 1026.68 1025.94 1025.11 1024.21 1023.27 1022.34 1021.41 1020.50 1019.63 1018.78 1017.96 1017.16 1016.40 1015.66 1014.97 1014.33 1013.75 1013.25 1012.83 1012.51 1012.28 1012.15 1012.09 1012.10 1012.16 1012.25 1012.36 1012.48 1012.58 1012.69 1012.79 1012.90 1013.04 1013.21 1013.43 1013.71 1014.04 1014.43 1014.86 1015.32 1015.79 1016.27 1016.72
1027.03 1026.38 1025.65 1024.84 1023.99 1023.12 1022.26 1021.40 1020.57 1019.75 1018.95 1018.16 1017.39 1016.63 1015.90 1015.21 1014.58 1014.01 1013.52 1013.13 1012.83 1012.62 1012.49 1012.42 1012.41 1012.42 1012.44 1012.46 1012.49 1012.50 1012.53 1012.57 1012.64 1012.76 1012.93 1013.18 1013.50 1013.88 1014.32 1014.79 1015.28 1015.77 1016.25 1016.70
1026.36 1025.70 1024.99 1024.24 1023.48 1022.72 1021.97 1021.23 1020.50 1019.77 1019.04 1018.31 1017.58 1016.85 1016.15 1015.47 1014.86 1014.31 1013.85 1013.48 1013.20 1013.00 1012.86 1012.77 1012.71 1012.66 1012.61 1012.54 1012.47 1012.41 1012.36 1012.34 1012.39 1012.50 1012.70 1012.98 1013.34 1013.77 1014.24 1014.75 1015.25 1015.76 1016.23 1016.67
1025.39 1024.74 1024.07 1023.41 1022.76 1022.13 1021.52 1020.92 1020.31 1019.70 1019.07 1018.41 1017.74 1017.06 1016.39 1015.75 1015.16 1014.64 1014.20 1013.85 1013.57 1013.37 1013.22 1013.09 1012.98 1012.86 1012.72 1012.57 1012.41 1012.27 1012.16 1012.11 1012.14 1012.25 1012.47 1012.79 1013.19 1013.65 1014.16 1014.69 1015.21 1015.71 1016.17 1016.60
1024.25 1023.63 1023.03 1022.46 1021.94 1021.45 1020.98 1020.53 1020.06 1019.57 1019.04 1018.47 1017.86 1017.24 1016.61 1016.01 1015.45 1014.96 1014.54 1014.20 1013.92 1013.70 1013.52 1013.34 1013.17 1012.97 1012.75 1012.52 1012.29 1012.08 1011.92 1011.85 1011.86 1011.99 1012.23 1012.58 1013.01 1013.51 1014.04 1014.58 1015.10 1015.60 1016.05 1016.47
1023.11 1022.53 1022.01 1021.54 1021.14 1020.78 1020.45 1020.12 1019.77 1019.39 1018.95 1018.47 1017.93 1017.36 1016.79 1016.23 1015.71 1015.24 1014.83 1014.49 1014.21 1013.96 1013.73 1013.49 1013.24 1012.97 1012.67 1012.36 1012.07 1011.81 1011.62 1011.53 1011.54 1011.68 1011.94 1012.31 1012.77 1013.29 1013.83 1014.38 1014.90 1015.39 1015.85 1016.26
1022.11 1021.59 1021.14 1020.77 1020.47 1020.22 1019.99 1019.76 1019.51 1019.20 1018.84 1018.41 1017.94 1017.42 1016.90 1016.38 1015.89 1015.45 1015.05 1014.70 1014.40 1014.11 1013.82 1013.52 1013.20 1012.85 1012.48 1012.11 1011.77 1011.47 1011.26 1011.16 1011.18 1011.33 1011.60 1011.99 1012.46 1012.98 1013.53 1014.09 1014.61 1015.11 1015.57 1016.00
1021.32 1020.86 1020.49 1020.21 1019.99 1019.81 1019.65 1019.48 1019.27 1019.02 1018.70 1018.32 1017.89 1017.42 1016.93 1016.45 1016.00 1015.57 1015.18 1014.82 1014.49 1014.15 1013.81 1013.45 1013.05 1012.64 1012.20 1011.78 1011.40 1011.08 1010.85 1010.75 1010.77 1010.94 1011.22 1011.62 1012.10 1012.63 1013.19 1013.74 1014.27 1014.78 1015.26 1015.72
1020.74 1020.36 1020.07 1019.85 1019.68 1019.55 1019.42 1019.28 1019.09 1018.85 1018.55 1018.19 1017.79 1017.35 1016.91 1016.46 1016.03 1015.62 1015.23 1014.86 1014.49 1014.12 1013.72 1013.29 1012.83 1012.35 1011.87 1011.41 1011.00 1010.67 1010.45 1010.35 1010.38 1010.56 1010.86 1011.26 1011.74 1012.28 1012.84 1013.39 1013.94 1014.47 1014.98 1015.47
1020.31 1020.02 1019.80 1019.64 1019.51 1019.40 1019.28 1019.13 1018.93 1018.69 1018.39 1018.04 1017.66 1017.25 1016.83 1016.41 1016.01 1015.61 1015.23 1014.84 1014.44 1014.02 1013.57 1013.09 1012.58 1012.05 1011.53 1011.05 1010.63 1010.30 1010.08 1010.00 1010.05 1010.24 1010.55 1010.96 1011.45 1011.99 1012.54 1013.11 1013.67 1014.22 1014.77 1015.30
1019.94 1019.74 1019.59 1019.48 1019.38 1019.28 1019.15 1018.99 1018.78 1018.51 1018.21 1017.86 1017.49 1017.10 1016.71 1016.32 1015.94 1015.56 1015.18 1014.79 1014.37 1013.91 1013.42 1012.89 1012.34 1011.78 1011.24 1010.75 1010.33 1010.01 1009.81 1009.75 1009.82 1010.03 1010.35 1010.77 1011.26 1011.80 1012.36 1012.93 1013.51 1014.08 1014.65 1015.23
1019.52 1019.40 1019.33 1019.27 1019.20 1019.11 1018.98 1018.80 1018.57 1018.29 1017.97 1017.63 1017.27 1016.91 1016.55 1016.20 1015.85 1015.49 1015.12 1014.72 1014.28 1013.81 1013.29 1012.73 1012.15 1011.58 1011.03 1010.54 1010.13 1009.83 1009.66 1009.62 1009.72 1009.94 1010.28 1010.70 1011.19 1011.72 1012.28 1012.86 1013.45 1014.04 1014.64 1015.25
1018.97 1018.94 1018.94 1018.93 1018.90 1018.82 1018.69 1018.50 1018.26 1017.97 1017.66 1017.33 1016.99 1016.66 1016.34 1016.02 1015.71 1015.38 1015.03 1014.64 1014.20 1013.71 1013.18 1012.62 1012.03 1011.46 1010.91 1010.44 1010.05 1009.78 1009.63 1009.62 1009.73 1009.97 1010.31 1010.73 1011.22 1011.74 1012.30 1012.87 1013.46 1014.07 1014.69 1015.32
1018.27 1018.32 1018.38 1018.43 1018.43 1018.37 1018.25 1018.06 1017.82 1017.54 1017.24 1016.93 1016.62 1016.33 1016.05 1015.78 1015.50 1015.21 1014.89 1014.53 1014.11 1013.64 1013.12 1012.56 1011.99 1011.42 1010.90 1010.45 1010.09 1009.84 1009.71 1009.72 1009.84 1010.08 1010.42 1010.83 1011.30 1011.81 1012.35 1012.92 1013.50 1014.11 1014.73 1015.38
1017.46 1017.57 1017.69 1017.78 1017.82 1017.78 1017.67 1017.49 1017.25 1016.98 1016.70 1016.41 1016.14 1015.89 1015.66 1015.44 1015.22 1014.98 1014.70 1014.38 1014.00 1013.56 1013.07 1012.54 1012.00 1011.46 1010.97 1010.54 1010.20 1009.97 1009.87 1009.88 1010.00 1010.23 1010.55 1010.94 1011.38 1011.87 1012.39 1012.93 1013.50 1014.10 1014.73 1015.38
1016.62 1016.79 1016.95 1017.07 1017.13 1017.10 1016.99 1016.82 1016.59 1016.33 1016.07 1015.81 1015.57 1015.37 1015.18 1015.02 1014.85 1014.67 1014.45 1014.19 1013.86 1013.47 1013.03 1012.55 1012.05 1011.55 1011.09 1010.69 1010.38 1010.16 1010.06 1010.06 1010.17 1010.38 1010.67 1011.02 1011.43 1011.89 1012.37 1012.89 1013.45 1014.04 1014.65 1015.30
1015.86 1016.06 1016.25 1016.38 1016.44 1016.42 1016.31 1016.13 1015.91 1015.65 1015.40 1015.16 1014.95 1014.78 1014.65 1014.53 1014.43 1014.31 1014.15 1013.95 1013.69 1013.37 1012.99 1012.57 1012.12 1011.67 1011.25 1010.89 1010.59 1010.38 1010.27 1010.26 1010.35 1010.52 1010.77 1011.08 1011.45 1011.87 1012.32 1012.82 1013.35 1013.92 1014.53 1015.17
1015.26 1015.48 1015.67 1015.81 1015.85 1015.81 1015.69 1015.50 1015.27 1015.01 1014.76 1014.54 1014.35 1014.21 1014.11 1014.04 1013.98 1013.92 1013.83 1013.70 1013.51 1013.26 1012.95 1012.60 1012.21 1011.83 1011.45 1011.12 1010.84 1010.64 1010.52 1010.49 1010.54 1010.68 1010.89 1011.16 1011.49 1011.86 1012.28 1012.75 1013.25 1013.81 1014.40 1015.03
1014.86 1015.09 1015.28 1015.39 1015.42 1015.36 1015.22 1015.01 1014.76 1014.49 1014.24 1014.02 1013.84 1013.72 1013.64 1013.60 1013.59 1013.57 1013.54 1013.47 1013.35 1013.17 1012.94 1012.66 1012.34 1012.01 1011.69 1011.39 1011.13 1010.94 1010.81 1010.77 1010.79 1010.89 1011.07 1011.30 1011.59 1011.93 1012.32 1012.76 1013.24 1013.77 1014.34 1014.94
1014.67 1014.90 1015.07 1015.16 1015.17 1015.08 1014.92 1014.69 1014.42 1014.15 1013.89 1013.66 1013.49 1013.37 1013.30 1013.28 1013.29 1013.31 1013.32 1013.31 1013.25 1013.13 1012.97 1012.76 1012.51 1012.24 1011.97 1011.71 1011.49 1011.31 1011.19 1011.14 1011.15 1011.23 1011.37 1011.58 1011.84 1012.15 1012.52 1012.92 1013.37 1013.87 1014.41 1014.98
1014.63 1014.85 1015.01 1015.09 1015.07 1014.97 1014.79 1014.55 1014.28 1014.00 1013.73 1013.50 1013.32 1013.20 1013.13 1013.12 1013.14 1013.17 1013.21 1013.23 1013.22 1013.16 1013.06 1012.92 1012.74 1012.53 1012.32 1012.12 1011.93 1011.78 1011.68 1011.63 1011.64 1011.71 1011.84 1012.03 1012.27 1012.56 1012.90 1013.28 1013.69 1014.15 1014.65 1015.17
1014.67 1014.88 1015.02 1015.09 1015.07 1014.97 1014.79 1014.56 1014.30 1014.02 1013.76 1013.53 1013.34 1013.21 1013.13 1013.11 1013.12 1013.15 1013.20 1013.24 1013.26 1013.25 1013.20 1013.12 1013.01 1012.87 1012.73 1012.58 1012.45 1012.35 1012.28 1012.26 1012.28 1012.36 1012.49 1012.66 1012.89 1013.16 1013.47 1013.81 1014.19 1014.60 1015.03 1015.49
Thickness
5439 5447 5443 5440 5441 5442 5440 5444 5446 5455 5455 5456 5453 5450 5450 5451 5449 5447 5445 5443 5440 5438 5437 5435 5434 5434 5434 5434 5435 5436 5436 5436 5437 5437 5437 5437 5438 5438 5438 5438 5439 5440 5441 5441
5428 5440 5436 5433 5435 5437 5437 5439 5442 5445 5445 5447 5446 5444 5442 5440 5439 5437 5436 5434 5432 5430 5428 5426 5425 5424 5424 5424 5424 5425 5425 5426 5426 5427 5427 5427 5427 5426 5426 5426 5427 5428 5429 5429
5426 5428 5425 5423 5428 5430 5432 5433 5433 5433 5435 5438 5436 5435 5434 5431 5429 5428 5426 5424 5422 5420 5419 5417 5416 5415 5414 5414 5414 5415 5415 5416 5416 5417 5417 5417 5417 5416 5416 5416 5416 5416 5417 5417
5413 5415 5413 5424 5427 5428 5426 5425 5424 5424 5425 5426 5426 5426 5425 5423 5419 5417 5416 5415 5413 5412 5410 5409 5407 5406 5405 5405 5405 5405 5405 5406 5407 5406 5406 5406 5406 5406 5405 5405 5405 5405 5406 5406
5407 5409 5417 5420 5420 5416 5414 5413 5415 5414 5416 5417 5418 5419 5416 5414 5411 5407 5406 5405 5404 5402 5401 5399 5398 5397 5396 5395 5395 5395 5396 5396 5397 5397 5396 5396 5396 5396 5395 5395 5394 5394 5395 5395
5402 5404 5407 5413 5408 5409 5408 5404 5406 5405 5404 5405 5405 5404 5404 5403 5401 5399 5398 5397 5395 5394 5392 5391 5390 5389 5387 5386 5386 5386 5387 5387 5387 5388 5388 5388 5387 5387 5386 5386 5385 5385 5385 5385
5396 5397 5401 5399 5399 5401 5398 5397 5392 5393 5392 5392 5391 5390 5392 5393 5391 5390 5390 5389 5388 5386 5385 5383 5382 5381 5379 5378 5377 5378 5379 5379 5379 5379 5379 5379 5379 5378 5378 5377 5377 5377 5377 5376
5388 5390 5393 5389 5390 5387 5384 5385 5385 5385 5384 5383 5382 5383 5384 5384 5383 5382 5381 5380 5380 5378 5376 5375 5374 5373 5372 5371 5370 5370 5370 5370 5371 5371 5372 5372 5371 5370 5370 5369 5369 5368 5368 5368
5381 5383 5383 5379 5378 5379 5378 5377 5378 5377 5376 5374 5374 5375 5375 5375 5374 5373 5372 5371 5371 5370 5368 5367 5366 5365 5364 5363 5363 5363 5362 5362 5362 5363 5363 5364 5363 5362 5362 5362 5361 5361 5360 5360
5374 5376 5378 5377 5375 5374 5372 5370 5370 5369 5367 5367 5366 5367 5366 5366 5365 5365 5364 5363 5362 5362 5360 5358 5358 5358 5357 5357 5356 5355 5354 5354 5355 5355 5355 5355 5355 5355 5355 5354 5353 5353 5353 5353
5366 5370 5371 5373 5370 5368 5366 5365 5363 5362 5361 5360 5359 5358 5358 5358 5357 5357 5356 5355 5354 5353 5352 5350 5350 5350 5349 5349 5348 5347 5347 5347 5347 5347 5347 5347 5347 5346 5347 5347 5346 5346 5346 5346
5365 5366 5365 5364 5365 5363 5360 5358 5356 5355 5354 5353 5352 5351 5351 5350 5350 5350 5349 5349 5347 5346 5345 5343 5343 5342 5342 5341 5341 5340 5340 5340 5339 5339 5339 5339 5338 5338 5339 5339 5340 5341 5341 5340
5360 5360 5359 5358 5357 5355 5353 5352 5351 5349 5348 5346 5346 5345 5344 5343 5342 5342 5342 5341 5340 5338 5337 5336 5336 5335 5334 5334 5334 5333 5332 5332 5332 5332 5332 5331 5331 5331 5331 5332 5333 5334 5334 5335
5356 5354 5353 5352 5349 5348 5346 5345 5345 5344 5343 5341 5339 5339 5337 5336 5335 5335 5335 5334 5333 5332 5331 5330 5329 5328 5328 5327 5327 5326 5326 5326 5326 5325 5324 5324 5324 5324 5324 5324 5325 5326 5327 5328
5349 5347 5346 5345 5344 5342 5340 5339 5337 5336 5335 5334 5333 5332 5330 5328 5328 5328 5328 5328 5327 5325 5324 5323 5322 5321 5321 5321 5320 5320 5320 5319 5319 5319 5318 5318 5318 5318 5318 5318 5318 5318 5319 5320
5343 5342 5341 5339 5338 5337 5336 5334 5331 5330 5329 5328 5326 5325 5323 5322 5322 5322 5322 5321 5320 5319 5318 5318 5317 5316 5315 5315 5315 5314 5314 5314 5313 5312 5312 5312 5312 5312 5311 5311 5311 5312 5312 5312
5335 5336 5335 5334 5333 5332 5331 5329 5327 5326 5324 5322 5321 5320 5318 5317 5316 5316 5316 5315 5315 5314 5313 5313 5311 5311 5311 5310 5309 5309 5308 5308 5308 5307 5307 5307 5306 5306 5305 5305 5305 5305 5305 5306
5332 5330 5329 5328 5327 5326 5325 5324 5323 5321 5319 5318 5316 5314 5313 5311 5311 5311 5310 5310 5310 5309 5308 5307 5307 5306 5306 5305 5305 5304 5303 5303 5302 5302 5302 5301 5301 5300 5300 5299 5299 5299 5300 5300
5327 5326 5325 5324 5323 5321 5321 5320 5318 5317 5316 5314 5312 5310 5309 5307 5307 5306 5305 5304 5304 5303 5302 5301 5302 5301 5301 5300 5300 5299 5298 5298 5297 5297 5297 5297 5296 5295 5294 5294 5294 5294 5295 5295
5323 5321 5320 5318 5318 5316 5315 5315 5314 5312 5311 5310 5308 5306 5304 5302 5302 5300 5299 5299 5298 5298 5297 5297 5296 5296 5295 5295 5295 5294 5293 5293 5292 5291 5291 5291 5290 5290 5289 5289 5289 5289 5290 5290
5317 5316 5315 5313 5312 5311 5310 5309 5308 5307 5306 5305 5303 5301 5299 5298 5297 5295 5294 5294 5293 5293 5293 5293 5291 5290 5290 5290 5290 5288 5288 5287 5287 5286 5286 5285 5285 5284 5284 5284 5284 5284 5284 5285
5312 5310 5309 5307 5306 5305 5305 5304 5303 5301 5300 5299 5298 5296 5294 5293 5292 5290 5290 5288 5288 5289 5288 5286 5285 5285 5285 5285 5284 5283 5283 5282 5282 5281 5280 5280 5279 5279 5279 5279 5279 5279 5279 5279
5307 5305 5304 5303 5301 5299 5299 5298 5297 5296 5294 5293 5292 5291 5290 5288 5287 5286 5285 5285 5284 5284 5283 5281 5281 5282 5281 5279 5278 5277 5277 5277 5276 5275 5275 5274 5274 5274 5274 5274 5274 5274 5275 5275
5302 5300 5299 5297 5296 5294 5294 5293 5292 5291 5289 5288 5287 5286 5285 5284 5284 5283 5282 5281 5281 5279 5277 5277 5277 5277 5276 5273 5272 5272 5271 5271 5270 5270 5270 5269 5269 5269 5269 5269 5270 5270 5271 5272
5296 5295 5294 5292 5291 5291 5290 5288 5287 5286 5285 5284 5283 5283 5282 5281 5280 5279 5277 5276 5276 5275 5272 5272 5272 5271 5269 5268 5267 5266 5266 5266 5265 5265 5265 5264 5264 5264 5264 5265 5265 5266 5267 5268
5292 5291 5290 5289 5288 5287 5285 5284 5283 5282 5282 5281 5280 5279 5278 5277 5276 5274 5273 5272 5271 5270 5268 5266 5265 5265 5264 5263 5262 5262 5261 5261 5260 5260 5259 5259 5259 5259 5259 5260 5260 5261 5263 5264
5288 5287 5286 5285 5285 5284 5282 5281 5280 5278 5277 5277 5276 5275 5273 5272 5271 5270 5269 5267 5266 5264 5263 5262 5261 5260 5259 5258 5257 5257 5256 5256 5255 5255 5254 5254 5254 5254 5255 5255 5256 5257 5259 5260